Powrót do katalogu

IRIDIUM 163

AktywnyŁącznośćPO
NORAD 43575·PAYLOAD·🇺🇸 United States

Wystrzelony Jul 25, 2018 z Vandenberg Space Force Base

Loading…

Następne Przeloty (najbliższe 24 godziny)

TLE

ŚwieżeSource: CelesTrak SupGP

Epoka: Sep 14, 2026, 21:32 UTC

1 43575C 18061G   26257.89756944 -.00000708  00000+0 -25324-3 0  2576
2 43575  86.4011  19.2004 0002247  96.2979  71.2736 14.34219213    16

Śledź IRIDIUM 163 w czasie rzeczywistym z AllMySat

Download on the App Store